• în România
  • Lista ţărilor
  • Pe 7 zile
  • Temperatura apei
  • Hartă satelitară
  • Meteo pe hartă
  • Widget-uri
  • user-avatar
    Intrare

    Meteo pe oră la Zawtat

    Astăzi, 21 Octombrie, Sâmbătă

    Timp Temperatura Precipitaţii Vânt Presiune Umiditate
    00:00 +15°C° 0 mm 1 m/s 742 mmHg 85%
    01:00 +15°C° 0 mm 1 m/s 742 mmHg 84%
    02:00 +14°C° 0 mm 1 m/s 742 mmHg 83%
    03:00 +14°C° 0 mm 1 m/s 742 mmHg 82%
    04:00 +14°C° 0 mm 1 m/s 742 mmHg 81%
    05:00 +14°C° 0 mm 1 m/s 742 mmHg 80%
    06:00 +14°C° 0 mm 1 m/s 742 mmHg 78%
    07:00 +15°C° 0 mm 1 m/s 742 mmHg 77%
    08:00 +18°C° 0 mm 1 m/s 742 mmHg 70%
    09:00 +20°C° 0 mm 1 m/s 742 mmHg 63%
    10:00 +22°C° 0 mm 1 m/s 742 mmHg 57%
    11:00 +22°C° 0 mm 1 m/s 742 mmHg 56%
    12:00 +23°C° 0 mm 2 m/s 742 mmHg 55%
    13:00 +23°C° 0 mm 2 m/s 741 mmHg 54%
    14:00 +21°C° 0 mm 2 m/s 741 mmHg 59%
    15:00 +21°C° 0 mm 3 m/s 741 mmHg 64%
    16:00 +20°C° 0 mm 3 m/s 741 mmHg 70%
    17:00 +18°C° 0 mm 3 m/s 741 mmHg 76%
    18:00 +17°C° 0 mm 2 m/s 741 mmHg 82%
    19:00 +16°C° 0 mm 2 m/s 741 mmHg 88%
    20:00 +15°C° 0 mm 2 m/s 741 mmHg 88%
    21:00 +15°C° 0 mm 2 m/s 741 mmHg 88%
    22:00 +15°C° 0 mm 2 m/s 741 mmHg 87%
    23:00 +15°C° 0 mm 2 m/s 741 mmHg 87%

    Mâine, 22 Octombrie, Duminică

    Timp Temperatura Precipitaţii Vânt Presiune Umiditate
    00:00 +15°C° 0 mm 1 m/s 741 mmHg 86%
    01:00 +14°C° 0 mm 1 m/s 741 mmHg 85%
    02:00 +14°C° 0 mm 1 m/s 741 mmHg 85%
    03:00 +14°C° 0 mm 1 m/s 740 mmHg 85%
    04:00 +14°C° 0 mm 1 m/s 740 mmHg 85%
    05:00 +14°C° 0 mm 1 m/s 740 mmHg 85%
    06:00 +14°C° 0 mm 1 m/s 740 mmHg 85%
    07:00 +15°C° 0 mm 1 m/s 740 mmHg 85%
    08:00 +16°C° 0 mm 1 m/s 740 mmHg 80%
    09:00 +19°C° 0 mm 1 m/s 740 mmHg 75%
    10:00 +20°C° 0 mm 2 m/s 740 mmHg 70%
    11:00 +20°C° 0 mm 2 m/s 739 mmHg 71%
    12:00 +20°C° 0 mm 2 m/s 739 mmHg 72%
    13:00 +20°C° 0 mm 2 m/s 738 mmHg 73%
    14:00 +20°C° 0 mm 2 m/s 738 mmHg 76%
    15:00 +19°C° 0 mm 2 m/s 737 mmHg 80%
    16:00 +19°C° 0 mm 2 m/s 737 mmHg 83%
    17:00 +18°C° 0,1 mm 3 m/s 736 mmHg 86%
    18:00 +17°C° 0,1 mm 4 m/s 736 mmHg 90%
    19:00 +17°C° 0,1 mm 4 m/s 736 mmHg 94%
    20:00 +16°C° 1 mm 5 m/s 735 mmHg 94%
    21:00 +16°C° 1 mm 6 m/s 735 mmHg 94%
    22:00 +16°C° 1 mm 6 m/s 735 mmHg 94%
    23:00 +16°C° 2,1 mm 6 m/s 734 mmHg 93%

    Poimâine, 23 Octombrie, Luni

    Timp Temperatura Precipitaţii Vânt Presiune Umiditate
    00:00 +16°C° 2,1 mm 6 m/s 734 mmHg 93%
    01:00 +16°C° 2,1 mm 6 m/s 733 mmHg 92%
    02:00 +15°C° 0,7 mm 6 m/s 733 mmHg 91%
    03:00 +15°C° 0,7 mm 5 m/s 733 mmHg 90%
    04:00 +15°C° 0,7 mm 5 m/s 732 mmHg 89%
    05:00 +15°C° 1 mm 5 m/s 732 mmHg 89%
    06:00 +14°C° 1 mm 4 m/s 732 mmHg 90%
    07:00 +14°C° 1 mm 4 m/s 732 mmHg 91%
    08:00 +14°C° 1,4 mm 4 m/s 732 mmHg 87%
    09:00 +15°C° 1,4 mm 4 m/s 732 mmHg 84%
    10:00 +15°C° 1,4 mm 4 m/s 732 mmHg 81%
    11:00 +14°C° 1,7 mm 4 m/s 732 mmHg 80%
    12:00 +14°C° 1,7 mm 4 m/s 732 mmHg 80%
    13:00 +13°C° 1,7 mm 4 m/s 732 mmHg 79%
    14:00 +13°C° 0,6 mm 5 m/s 732 mmHg 78%
    15:00 +12°C° 0,6 mm 5 m/s 732 mmHg 77%
    16:00 +12°C° 0,6 mm 5 m/s 732 mmHg 76%
    17:00 +10°C° 0,3 mm 5 m/s 733 mmHg 75%
    18:00 +10°C° 0,3 mm 5 m/s 733 mmHg 74%
    19:00 +10°C° 0,3 mm 5 m/s 733 mmHg 73%
    20:00 +10°C° 0 mm 5 m/s 733 mmHg 73%
    21:00 +10°C° 0 mm 6 m/s 733 mmHg 73%
    22:00 +10°C° 0 mm 6 m/s 733 mmHg 73%
    23:00 +9°C° 0 mm 6 m/s 733 mmHg 73%

    24 Octombrie, Marţi

    Timp Temperatura Precipitaţii Vânt Presiune Umiditate
    00:00 +9°C° 0 mm 6 m/s 733 mmHg 73%
    01:00 +9°C° 0 mm 6 m/s 733 mmHg 72%
    02:00 +9°C° 0 mm 6 m/s 733 mmHg 72%
    03:00 +9°C° 0 mm 6 m/s 733 mmHg 72%
    04:00 +9°C° 0 mm 6 m/s 733 mmHg 72%
    05:00 +9°C° 0 mm 6 m/s 733 mmHg 72%
    06:00 +9°C° 0 mm 6 m/s 733 mmHg 71%
    07:00 +9°C° 0 mm 6 m/s 733 mmHg 71%
    08:00 +10°C° 0 mm 7 m/s 734 mmHg 67%
    09:00 +12°C° 0 mm 8 m/s 734 mmHg 62%
    10:00 +13°C° 0 mm 8 m/s 734 mmHg 58%
    11:00 +13°C° 0 mm 8 m/s 734 mmHg 58%
    12:00 +15°C° 0 mm 8 m/s 734 mmHg 58%
    13:00 +15°C° 0 mm 8 m/s 734 mmHg 58%
    14:00 +13°C° 0 mm 8 m/s 734 mmHg 60%
    15:00 +13°C° 0 mm 8 m/s 734 mmHg 62%
    16:00 +12°C° 0 mm 8 m/s 734 mmHg 64%
    17:00 +12°C° 0 mm 8 m/s 734 mmHg 65%
    18:00 +11°C° 0 mm 8 m/s 735 mmHg 66%
    19:00 +11°C° 0 mm 9 m/s 735 mmHg 66%
    20:00 +11°C° 0 mm 9 m/s 735 mmHg 66%
    21:00 +12°C° 0 mm 9 m/s 736 mmHg 65%
    22:00 +12°C° 0 mm 9 m/s 736 mmHg 64%
    23:00 +12°C° 0 mm 9 m/s 736 mmHg 64%

    25 Octombrie, Miercuri

    Timp Temperatura Precipitaţii Vânt Presiune Umiditate
    00:00 +12°C° 0 mm 8 m/s 736 mmHg 65%
    01:00 +12°C° 0 mm 8 m/s 736 mmHg 65%
    02:00 +12°C° 0 mm 8 m/s 737 mmHg 66%
    03:00 +11°C° 0 mm 7 m/s 737 mmHg 67%
    04:00 +11°C° 0 mm 7 m/s 737 mmHg 68%
    05:00 +11°C° 0 mm 7 m/s 738 mmHg 68%
    06:00 +11°C° 0 mm 7 m/s 738 mmHg 69%
    07:00 +11°C° 0 mm 7 m/s 739 mmHg 69%
    08:00 +12°C° 0 mm 7 m/s 739 mmHg 64%
    09:00 +15°C° 0 mm 7 m/s 740 mmHg 60%
    10:00 +16°C° 0 mm 7 m/s 740 mmHg 55%
    11:00 +16°C° 0 mm 7 m/s 740 mmHg 54%
    12:00 +16°C° 0 mm 7 m/s 740 mmHg 54%
    13:00 +16°C° 0 mm 7 m/s 740 mmHg 53%
    14:00 +15°C° 0 mm 7 m/s 740 mmHg 56%
    15:00 +15°C° 0 mm 7 m/s 741 mmHg 58%
    16:00 +14°C° 0 mm 6 m/s 741 mmHg 61%
    17:00 +13°C° 0 mm 6 m/s 741 mmHg 63%
    18:00 +11°C° 0 mm 6 m/s 742 mmHg 65%
    19:00 +9°C° 0 mm 6 m/s 743 mmHg 67%
    20:00 +9°C° 0 mm 5 m/s 743 mmHg 67%
    21:00 +9°C° 0 mm 5 m/s 743 mmHg 68%
    22:00 +8°C° 0 mm 4 m/s 744 mmHg 68%
    23:00 +8°C° 0 mm 4 m/s 744 mmHg 68%

    26 Octombrie, Joi

    Timp Temperatura Precipitaţii Vânt Presiune Umiditate
    00:00 +8°C° 0 mm 4 m/s 744 mmHg 68%
    01:00 +7°C° 0 mm 4 m/s 744 mmHg 68%
    02:00 +7°C° 0 mm 4 m/s 744 mmHg 66%
    03:00 +7°C° 0 mm 4 m/s 744 mmHg 65%
    04:00 +7°C° 0 mm 4 m/s 744 mmHg 63%
    05:00 +7°C° 0 mm 4 m/s 744 mmHg 61%
    06:00 +7°C° 0 mm 4 m/s 745 mmHg 59%
    07:00 +7°C° 0 mm 4 m/s 745 mmHg 57%
    08:00 +10°C° 0 mm 4 m/s 745 mmHg 52%
    09:00 +13°C° 0 mm 3 m/s 745 mmHg 46%
    10:00 +16°C° 0 mm 3 m/s 745 mmHg 41%
    11:00 +17°C° 0 mm 3 m/s 745 mmHg 41%
    12:00 +18°C° 0 mm 2 m/s 745 mmHg 41%
    13:00 +19°C° 0 mm 2 m/s 744 mmHg 41%
    14:00 +18°C° 0 mm 2 m/s 744 mmHg 46%
    15:00 +17°C° 0 mm 3 m/s 745 mmHg 52%
    16:00 +17°C° 0 mm 3 m/s 745 mmHg 57%
    17:00 +14°C° 0 mm 3 m/s 745 mmHg 60%
    18:00 +13°C° 0 mm 3 m/s 745 mmHg 64%
    19:00 +12°C° 0 mm 4 m/s 745 mmHg 67%
    20:00 +11°C° 0 mm 4 m/s 745 mmHg 68%
    21:00 +11°C° 0 mm 4 m/s 746 mmHg 69%
    22:00 +10°C° 0 mm 4 m/s 746 mmHg 71%
    23:00 +10°C° 0 mm 3 m/s 746 mmHg 72%
    Arată mai mult